Location: Aufkirchen
(47.9603°N, 11.3653°E)
Time: 06:47:13
(UTC+02:00)

ISS - Visible Passes

Search period start: 28 July 2021 00:00
Search period end: 07 August 2021 00:00
Orbit: 419 x 421 km, 51.6° (Epoch: 28 July)

Date Brightness Start Highest point End Pass type
(mag) Time Alt. Az. Time Alt. Az. Time Alt. Az.
28 Jul -3.5 22:23:36 10° WNW 22:26:55 54° SSW 22:28:41 24° SE visible
29 Jul -3.7 21:36:18 10° WNW 21:39:42 78° SSW 21:43:03 10° ESE visible
29 Jul -1.6 23:13:57 10° W 23:16:01 16° SW 23:16:01 16° SW visible
30 Jul -2.1 22:26:15 10° W 22:29:01 24° SW 22:30:29 18° S visible
31 Jul -2.7 21:38:49 10° WNW 21:41:57 35° SW 21:45:01 10° SSE visible
02 Aug -1.3 21:42:03 10° W 21:44:08 15° SW 21:46:12 10° S visible
